sat.trackr.live / text

‹ back to catalog

KUIPER-00092

NORAD 64837 · 2025-151X

PAYLOAD ACTIVE UNKNOWN

§ Identity

Operator
Country
US
Launch date
2025-07-16
Launch site
AFETR
Launch vehicle
Mass (kg)
RCS (m²)

External: N2YO · Heavens-Above · Gunter

§ Orbital elements

Epoch: 2026-09-21T20:14:58.782624Z

Period
97.30 min
Inclination
51.9006°
Eccentricity
0.0000834
Mean motion
14.79937337 rev/d
Perigee alt
628.9 km
Apogee alt
630.1 km
Semi-major
7,007.7 km
B*
1.5843e-4
RAAN
143.2127°
Arg perigee
99.2678°
Mean anomaly
260.8378°
Rev number
6,570

§ Raw data

KUIPER-000921 64837U 25151X   26264.84373591  .00000987  00000+0  15843-3 0  99992 64837  51.9006 143.2127 0000834  99.2678 260.8378 14.79937337 65702

JSON: /api/v1/satellites/64837 · /tle

For live sub-satellite position, see the globe view (requires WebGL).

§ Visibility from observer

Set your observer location to see the next 7 days of passes ≥ 10°. The values pass through the URL so the page stays shareable.

No JS? Fill the form by hand. The geolocation button needs JavaScript.